User: anonymous   Login
Location: 相模原市立博物館
(35.5593°N, 139.3931°E)
Time: 14:46:59
(UTC+09:00)
Language:

ISS - Orbit

View from above orbital plane
View from above orbital plane
View from above satellite
View from above satellite

Ground track
Ground track

The orbit data is extracted from the following two-line orbital elements,

1 25544U 98067A   22271.07140132  .00011143  00000-0  20056-3 0  9998
2 25544  51.6442 186.8554 0002488 301.9002  13.6243 15.50338071361134
Epoch (UTC): 28 September 2022 01:42:49
Eccentricity: 0.0002488
inclination: 51.6442°
perigee height: 414 km
apogee height: 417 km
right ascension of ascending node: 186.8554°
argument of perigee: 301.9002°
revolutions per day: 15.50338071
mean anomaly at epoch: 13.6243°
orbit number at epoch: 36113

The dashed part of the orbit path shows where the satellite is in the earth's shadow,  

DLR